User: anonymous   Login
Location: Eaton
(41.3139°N, 82.0207°W)
Time: 15:15:11
(UTC+00:00)
Language:

ATLAS 5 CENTAUR R/B - Orbit

View from above orbital plane
View from above orbital plane
View from above satellite
View from above satellite

Ground track
Ground track

The orbit data is extracted from the following two-line orbital elements,

1 31702U 07027B   21226.84006803 0.00000400  00000-0  70491-4 0    03
2 31702  63.3584 107.0001 0443000  19.9689 340.0311 14.18989134    06
Epoch (UTC): 14 August 2021 20:09:41
Eccentricity: 0.0443000
inclination: 63.3584°
perigee height: 509 km
apogee height: 1148 km
right ascension of ascending node: 107.0001°
argument of perigee: 19.9689°
revolutions per day: 14.18989134
mean anomaly at epoch: 340.0311°
orbit number at epoch: 0

The dashed part of the orbit path shows where the satellite is in the earth's shadow,  

DLR